map of AER home
Great Circle Mapper logo
AER - Airport
Location
City:  Sochi, Krasnodarakiy, Russian Federation (Russia)
ICAO / IATA:URSS / AER

Details
Type:Airport (Aerodrome, Airfield)
Use:Public/Civil
Latitude:4327'00"N (43.449928)
Longitude:3957'24"E (39.956589)
Datum:WGS 1984
Elevation:89 ft (27 m)
Variation:6.73E (WMM2015 magnetic declination)
0.09 annual change
Runways:2
Longest:9482 × 164 ft (2890 × 50 m), paved

Time
Time Zone:UTC+3 (DST+4)

Weather
METAR:URSS 231100Z 18003MPS 110V220 9999 FEW030 24/16 Q1011 R02/090070 R06/090070 NOSIG RMK MT OBSC R06/20001MPS QFE756
TAF:URSS 231059Z 2312/2412 23005MPS 9999 SCT030
BECMG 2317/2318 06005MPS BKN008
TEMPO 2317/2405 OVC006
BECMG 2406/2407 18004G09MPS BKN015
BECMG 2409/2410 SCT030

Related Locations
Nearby:
Farthest:NTAV: 11014 mi / 17726 km
Raivavae, Tubuai Islands, Austral Islands, PF

Find:

   beyond  
but within

Other Information
Maps:
NOTAMs:
Links:
Sources:

  
flag of Russian Federation (Russia)
flag of Krasnodarakiy
  

Sectional Chart

Flight Planning
at skyvector.com

Satellite Image

Google Maps Satellite View

 

Copyright © 2004-2015 Karl L. Swartz. All rights reserved.
The Great Circle Mapper name and logo are trademarks of the Great Circle Mapper.
All other trademarks mentioned herein belong to their respective owners.
Please see credits for attibutions and further copyright information.

  Follow gcmap on Facebook Follow gcmap on Twitter Follow gcmap on Google+

hCard Microformat

Geo Microformat